QPF
0.00 0.00 0.00 0.00 0.01 0.01 0.01 0.01 0.01 0.01 0.01 0.02 0.03 0.04 0.05 0.05 0.07 0.08 0.08 0.11 0.12 0.11 0.09 0.08 0.08 0.08 0.08 0.08 0.09 0.11 0.11 0.12 0.10 0.06 0.05 0.05 0.07 0.08 0.10 0.10 0.09 0.11 0.14
0.00 0.00 0.00 0.00 0.00 0.01 0.01 0.01 0.01 0.01 0.01 0.01 0.02 0.04 0.06 0.07 0.07 0.08 0.08 0.07 0.08 0.09 0.10 0.11 0.10 0.09 0.07 0.08 0.09 0.09 0.09 0.08 0.07 0.05 0.05 0.05 0.05 0.07 0.08 0.08 0.07 0.08 0.09
0.00 0.00 0.00 0.00 0.00 0.01 0.01 0.01 0.02 0.02 0.02 0.02 0.02 0.03 0.05 0.06 0.05 0.05 0.06 0.07 0.10 0.10 0.11 0.11 0.11 0.11 0.11 0.11 0.11 0.10 0.10 0.10 0.10 0.08 0.07 0.06 0.07 0.08 0.09 0.08 0.07 0.07 0.07
0.01 0.00 0.00 0.00 0.00 0.01 0.01 0.01 0.02 0.02 0.01 0.02 0.02 0.03 0.02 0.04 0.04 0.04 0.05 0.05 0.06 0.05 0.04 0.05 0.06 0.11 0.14 0.13 0.14 0.14 0.15 0.14 0.16 0.16 0.13 0.12 0.13 0.12 0.11 0.09 0.09 0.09 0.09
0.01 0.01 0.01 0.02 0.02 0.03 0.03 0.03 0.03 0.03 0.03 0.02 0.03 0.02 0.01 0.02 0.02 0.03 0.02 0.02 0.03 0.03 0.05 0.05 0.06 0.10 0.11 0.12 0.13 0.15 0.16 0.16 0.16 0.15 0.14 0.13 0.11 0.11 0.09 0.08 0.08 0.09 0.10
0.02 0.02 0.03 0.04 0.06 0.07 0.08 0.07 0.06 0.06 0.04 0.02 0.01 0.01 0.01 0.02 0.02 0.01 0.01 0.01 0.01 0.02 0.04 0.05 0.07 0.08 0.08 0.09 0.10 0.11 0.11 0.10 0.09 0.08 0.07 0.06 0.06 0.06 0.06 0.07 0.07 0.08 0.11
0.04 0.06 0.08 0.08 0.09 0.12 0.14 0.11 0.10 0.07 0.03 0.01 0.01 0.01 0.01 0.01 0.01 0.01 0.01 0.02 0.02 0.03 0.04 0.05 0.06 0.06 0.06 0.07 0.08 0.08 0.08 0.07 0.07 0.05 0.04 0.05 0.05 0.06 0.07 0.09 0.11 0.12 0.12
0.06 0.08 0.10 0.11 0.14 0.16 0.13 0.10 0.07 0.05 0.03 0.02 0.02 0.02 0.02 0.02 0.03 0.02 0.03 0.03 0.03 0.04 0.04 0.05 0.04 0.05 0.07 0.09 0.08 0.08 0.08 0.07 0.07 0.05 0.04 0.04 0.05 0.07 0.08 0.08 0.08 0.09 0.09
0.06 0.08 0.10 0.12 0.15 0.13 0.10 0.06 0.04 0.05 0.05 0.04 0.04 0.04 0.04 0.04 0.05 0.04 0.04 0.04 0.04 0.04 0.04 0.04 0.04 0.04 0.05 0.07 0.05 0.04 0.04 0.06 0.07 0.08 0.08 0.08 0.08 0.09 0.08 0.07 0.07 0.06 0.05
0.06 0.08 0.10 0.11 0.11 0.08 0.06 0.05 0.05 0.05 0.05 0.06 0.06 0.06 0.05 0.06 0.06 0.06 0.05 0.05 0.05 0.04 0.04 0.04 0.05 0.05 0.04 0.05 0.04 0.03 0.02 0.03 0.04 0.06 0.08 0.09 0.09 0.10 0.10 0.09 0.09 0.09 0.08
0.07 0.09 0.09 0.10 0.09 0.07 0.06 0.05 0.05 0.05 0.07 0.07 0.07 0.08 0.08 0.08 0.08 0.08 0.07 0.05 0.03 0.04 0.04 0.04 0.05 0.05 0.04 0.04 0.04 0.02 0.02 0.02 0.02 0.02 0.03 0.03 0.03 0.04 0.04 0.05 0.05 0.06 0.07
0.08 0.08 0.08 0.08 0.08 0.08 0.07 0.05 0.06 0.06 0.07 0.07 0.09 0.12 0.13 0.11 0.09 0.06 0.05 0.04 0.03 0.02 0.02 0.03 0.03 0.03 0.03 0.03 0.03 0.02 0.03 0.03 0.02 0.03 0.04 0.04 0.05 0.06 0.05 0.04 0.04 0.04 0.05
0.14 0.14 0.11 0.08 0.06 0.06 0.06 0.05 0.05 0.07 0.07 0.07 0.06 0.05 0.05 0.04 0.03 0.03 0.03 0.02 0.02 0.02 0.02 0.03 0.03 0.03 0.04 0.03 0.03 0.03 0.03 0.02 0.02 0.02 0.02 0.02 0.03 0.04 0.04 0.04 0.04 0.04 0.05
0.15 0.17 0.18 0.15 0.12 0.12 0.11 0.08 0.06 0.05 0.05 0.04 0.03 0.02 0.02 0.02 0.02 0.02 0.02 0.01 0.02 0.02 0.02 0.02 0.02 0.03 0.03 0.03 0.02 0.02 0.02 0.02 0.02 0.02 0.02 0.02 0.03 0.02 0.03 0.03 0.04 0.05 0.05
0.16 0.18 0.17 0.15 0.13 0.10 0.08 0.06 0.05 0.04 0.03 0.02 0.02 0.01 0.02 0.01 0.01 0.02 0.02 0.02 0.03 0.03 0.03 0.02 0.02 0.02 0.01 0.01 0.02 0.02 0.02 0.02 0.01 0.01 0.02 0.02 0.02 0.02 0.02 0.02 0.02 0.03 0.04
0.14 0.13 0.12 0.09 0.09 0.07 0.06 0.04 0.03 0.03 0.02 0.02 0.02 0.02 0.01 0.02 0.03 0.02 0.03 0.02 0.02 0.02 0.02 0.01 0.01 0.01 0.01 0.01 0.02 0.02 0.02 0.02 0.02 0.02 0.02 0.02 0.02 0.02 0.02 0.02 0.02 0.02 0.02
0.08 0.08 0.08 0.07 0.06 0.06 0.04 0.03 0.03 0.02 0.02 0.02 0.01 0.02 0.02 0.03 0.03 0.03 0.03 0.02 0.02 0.02 0.01 0.01 0.01 0.01 0.01 0.01 0.01 0.02 0.02 0.03 0.03 0.03 0.03 0.03 0.03 0.04 0.04 0.04 0.03 0.03 0.03
0.09 0.08 0.06 0.05 0.04 0.04 0.04 0.04 0.03 0.03 0.03 0.02 0.02 0.02 0.02 0.03 0.02 0.02 0.02 0.02 0.02 0.02 0.01 0.01 0.01 0.01 0.01 0.01 0.01 0.02 0.03 0.03 0.04 0.04 0.04 0.04 0.04 0.04 0.04 0.04 0.04 0.03 0.03
0.10 0.08 0.06 0.04 0.04 0.04 0.06 0.05 0.04 0.04 0.04 0.04 0.04 0.04 0.04 0.04 0.03 0.03 0.03 0.02 0.02 0.01 0.01 0.01 0.01 0.01 0.01 0.02 0.02 0.02 0.02 0.02 0.03 0.03 0.04 0.04 0.04 0.04 0.04 0.04 0.04 0.04 0.04
0.08 0.08 0.06 0.05 0.04 0.04 0.05 0.06 0.05 0.05 0.05 0.05 0.04 0.04 0.04 0.04 0.03 0.04 0.03 0.02 0.02 0.01 0.01 0.01 0.01 0.01 0.01 0.01 0.01 0.01 0.01 0.02 0.02 0.02 0.02 0.03 0.03 0.03 0.03 0.03 0.03 0.04 0.04
0.09 0.08 0.08 0.07 0.06 0.05 0.05 0.06 0.06 0.06 0.05 0.05 0.06 0.05 0.05 0.04 0.03 0.03 0.03 0.02 0.02 0.02 0.02 0.01 0.01 0.01 0.01 0.01 0.01 0.01 0.01 0.01 0.01 0.01 0.02 0.02 0.02 0.03 0.03 0.03 0.04 0.04 0.04
0.07 0.06 0.07 0.07 0.06 0.06 0.06 0.06 0.06 0.05 0.05 0.05 0.05 0.05 0.04 0.03 0.02 0.01 0.01 0.01 0.01 0.01 0.01 0.01 0.01 0.01 0.01 0.01 0.01 0.01 0.01 0.01 0.01 0.01 0.01 0.01 0.02 0.02 0.02 0.03 0.03 0.03 0.03
0.07 0.07 0.06 0.06 0.05 0.05 0.06 0.06 0.06 0.05 0.05 0.04 0.03 0.03 0.02 0.01 0.01 0.01 0.01 0.00 0.01 0.01 0.01 0.01 0.01 0.01 0.01 0.01 0.01 0.01 0.01 0.01 0.01 0.01 0.01 0.01 0.01 0.02 0.02 0.02 0.03 0.03 0.03
0.06 0.06 0.06 0.05 0.05 0.05 0.05 0.05 0.05 0.04 0.04 0.03 0.02 0.02 0.02 0.02 0.01 0.01 0.01 0.01 0.01 0.01 0.01 0.01 0.01 0.01 0.02 0.02 0.02 0.01 0.01 0.01 0.01 0.01 0.01 0.01 0.01 0.01 0.02 0.02 0.02 0.02 0.02
0.04 0.04 0.05 0.04 0.04 0.04 0.04 0.05 0.05 0.05 0.05 0.05 0.04 0.03 0.03 0.02 0.02 0.02 0.02 0.01 0.01 0.02 0.02 0.02 0.02 0.02 0.02 0.02 0.02 0.03 0.04 0.04 0.04 0.03 0.03 0.03 0.03 0.02 0.02 0.03 0.03 0.02 0.02
0.03 0.04 0.04 0.04 0.04 0.04 0.06 0.07 0.08 0.09 0.09 0.08 0.07 0.06 0.05 0.04 0.04 0.03 0.02 0.02 0.01 0.01 0.02 0.02 0.03 0.03 0.03 0.03 0.03 0.03 0.04 0.03 0.03 0.04 0.03 0.03 0.03 0.03 0.03 0.03 0.03 0.03 0.03
MSLP
1013.27 1013.64 1014.05 1014.45 1014.77 1014.97 1015.07 1015.08 1015.03 1014.99 1014.98 1015.02 1015.12 1015.25 1015.38 1015.49 1015.54 1015.51 1015.41 1015.27 1015.10 1014.93 1014.81 1014.75 1014.75 1014.81 1014.91 1015.05 1015.20 1015.34 1015.46 1015.55 1015.61 1015.63 1015.62 1015.56 1015.45 1015.30 1015.11 1014.89 1014.66 1014.43 1014.24
1013.08 1013.41 1013.78 1014.13 1014.42 1014.61 1014.70 1014.73 1014.71 1014.70 1014.71 1014.78 1014.90 1015.04 1015.18 1015.30 1015.35 1015.34 1015.25 1015.11 1014.95 1014.78 1014.65 1014.56 1014.52 1014.55 1014.62 1014.74 1014.87 1015.02 1015.17 1015.30 1015.41 1015.50 1015.54 1015.54 1015.48 1015.36 1015.19 1014.97 1014.73 1014.49 1014.26
1012.89 1013.20 1013.53 1013.84 1014.08 1014.25 1014.34 1014.38 1014.38 1014.40 1014.44 1014.53 1014.66 1014.82 1014.97 1015.09 1015.16 1015.15 1015.08 1014.96 1014.81 1014.65 1014.51 1014.41 1014.36 1014.36 1014.41 1014.51 1014.63 1014.78 1014.94 1015.11 1015.26 1015.40 1015.50 1015.55 1015.55 1015.47 1015.33 1015.14 1014.90 1014.64 1014.39
1012.61 1012.91 1013.22 1013.50 1013.73 1013.88 1013.97 1014.01 1014.05 1014.09 1014.17 1014.28 1014.43 1014.60 1014.75 1014.87 1014.94 1014.94 1014.88 1014.77 1014.64 1014.50 1014.37 1014.28 1014.23 1014.22 1014.26 1014.35 1014.47 1014.62 1014.79 1014.97 1015.16 1015.34 1015.49 1015.59 1015.64 1015.61 1015.51 1015.34 1015.12 1014.86 1014.58
1012.19 1012.51 1012.82 1013.09 1013.30 1013.45 1013.55 1013.63 1013.69 1013.78 1013.89 1014.03 1014.20 1014.37 1014.52 1014.63 1014.69 1014.69 1014.63 1014.53 1014.41 1014.29 1014.19 1014.12 1014.09 1014.10 1014.15 1014.24 1014.36 1014.52 1014.70 1014.89 1015.10 1015.31 1015.50 1015.65 1015.74 1015.76 1015.70 1015.56 1015.36 1015.10 1014.82
1011.61 1011.96 1012.28 1012.56 1012.78 1012.95 1013.08 1013.19 1013.31 1013.44 1013.59 1013.76 1013.95 1014.12 1014.26 1014.36 1014.40 1014.38 1014.32 1014.23 1014.13 1014.03 1013.97 1013.93 1013.94 1013.98 1014.06 1014.17 1014.31 1014.47 1014.66 1014.87 1015.09 1015.31 1015.52 1015.70 1015.83 1015.89 1015.87 1015.77 1015.59 1015.35 1015.06
1010.92 1011.30 1011.64 1011.94 1012.19 1012.39 1012.56 1012.72 1012.88 1013.06 1013.26 1013.47 1013.67 1013.84 1013.96 1014.04 1014.06 1014.02 1013.95 1013.87 1013.79 1013.73 1013.71 1013.73 1013.78 1013.88 1013.99 1014.14 1014.30 1014.48 1014.68 1014.89 1015.12 1015.35 1015.57 1015.76 1015.91 1016.00 1016.02 1015.95 1015.80 1015.58 1015.31
1010.22 1010.62 1010.98 1011.30 1011.56 1011.80 1012.01 1012.22 1012.44 1012.67 1012.91 1013.14 1013.35 1013.52 1013.63 1013.69 1013.68 1013.63 1013.56 1013.49 1013.44 1013.43 1013.46 1013.53 1013.65 1013.80 1013.98 1014.16 1014.36 1014.55 1014.76 1014.97 1015.19 1015.42 1015.64 1015.84 1016.00 1016.11 1016.15 1016.11 1015.99 1015.80 1015.55
1009.64 1010.04 1010.40 1010.72 1011.00 1011.25 1011.50 1011.75 1012.01 1012.28 1012.55 1012.80 1013.02 1013.19 1013.29 1013.32 1013.31 1013.26 1013.19 1013.14 1013.13 1013.16 1013.26 1013.40 1013.59 1013.80 1014.03 1014.26 1014.48 1014.70 1014.91 1015.12 1015.33 1015.54 1015.75 1015.94 1016.10 1016.22 1016.28 1016.26 1016.18 1016.01 1015.79
1009.29 1009.65 1009.99 1010.29 1010.57 1010.83 1011.09 1011.36 1011.65 1011.94 1012.23 1012.50 1012.72 1012.88 1012.97 1013.00 1012.98 1012.94 1012.89 1012.87 1012.90 1012.99 1013.15 1013.36 1013.61 1013.88 1014.16 1014.43 1014.68 1014.91 1015.13 1015.33 1015.52 1015.72 1015.91 1016.08 1016.24 1016.35 1016.42 1016.42 1016.35 1016.22 1016.02
1009.22 1009.53 1009.82 1010.08 1010.33 1010.58 1010.84 1011.12 1011.41 1011.71 1012.00 1012.27 1012.49 1012.64 1012.73 1012.76 1012.75 1012.72 1012.71 1012.73 1012.80 1012.95 1013.16 1013.43 1013.73 1014.06 1014.38 1014.68 1014.95 1015.18 1015.40 1015.59 1015.77 1015.94 1016.11 1016.27 1016.40 1016.51 1016.57 1016.58 1016.52 1016.40 1016.22
1009.42 1009.66 1009.89 1010.11 1010.32 1010.54 1010.78 1011.04 1011.33 1011.62 1011.90 1012.16 1012.37 1012.52 1012.61 1012.65 1012.65 1012.65 1012.66 1012.72 1012.84 1013.03 1013.29 1013.60 1013.94 1014.30 1014.64 1014.96 1015.24 1015.49 1015.70 1015.88 1016.05 1016.20 1016.35 1016.48 1016.60 1016.69 1016.74 1016.74 1016.68 1016.57 1016.40
1009.81 1009.99 1010.16 1010.33 1010.50 1010.69 1010.90 1011.14 1011.40 1011.68 1011.95 1012.19 1012.38 1012.53 1012.62 1012.66 1012.68 1012.70 1012.75 1012.84 1012.99 1013.21 1013.50 1013.83 1014.20 1014.57 1014.92 1015.25 1015.54 1015.78 1015.99 1016.16 1016.32 1016.46 1016.59 1016.70 1016.80 1016.87 1016.90 1016.89 1016.82 1016.70 1016.53
1010.29 1010.42 1010.54 1010.66 1010.80 1010.96 1011.15 1011.37 1011.61 1011.86 1012.11 1012.33 1012.52 1012.65 1012.74 1012.80 1012.83 1012.86 1012.93 1013.04 1013.21 1013.45 1013.74 1014.08 1014.44 1014.81 1015.17 1015.49 1015.78 1016.02 1016.23 1016.41 1016.56 1016.69 1016.81 1016.91 1016.99 1017.03 1017.04 1017.00 1016.91 1016.77 1016.58
1010.73 1010.83 1010.92 1011.01 1011.13 1011.27 1011.45 1011.65 1011.88 1012.11 1012.34 1012.55 1012.72 1012.85 1012.93 1012.99 1013.03 1013.07 1013.14 1013.26 1013.43 1013.66 1013.95 1014.28 1014.63 1014.99 1015.33 1015.65 1015.93 1016.18 1016.39 1016.58 1016.74 1016.87 1016.98 1017.07 1017.13 1017.15 1017.13 1017.06 1016.95 1016.78 1016.58
1011.05 1011.13 1011.21 1011.29 1011.40 1011.54 1011.71 1011.91 1012.13 1012.35 1012.57 1012.76 1012.92 1013.04 1013.12 1013.17 1013.21 1013.25 1013.32 1013.43 1013.59 1013.81 1014.08 1014.38 1014.72 1015.06 1015.39 1015.71 1016.00 1016.25 1016.48 1016.67 1016.84 1016.98 1017.09 1017.17 1017.22 1017.22 1017.17 1017.07 1016.93 1016.74 1016.51
1011.21 1011.28 1011.36 1011.45 1011.56 1011.70 1011.87 1012.07 1012.28 1012.50 1012.71 1012.89 1013.04 1013.14 1013.21 1013.26 1013.29 1013.33 1013.40 1013.50 1013.65 1013.85 1014.10 1014.39 1014.71 1015.04 1015.37 1015.69 1015.99 1016.26 1016.50 1016.71 1016.89 1017.04 1017.16 1017.23 1017.26 1017.23 1017.16 1017.04 1016.86 1016.65 1016.40
1011.23 1011.30 1011.38 1011.47 1011.58 1011.72 1011.89 1012.09 1012.29 1012.50 1012.70 1012.87 1013.01 1013.11 1013.17 1013.22 1013.25 1013.29 1013.35 1013.45 1013.60 1013.79 1014.04 1014.32 1014.64 1014.97 1015.31 1015.63 1015.95 1016.24 1016.50 1016.73 1016.92 1017.07 1017.19 1017.25 1017.26 1017.22 1017.12 1016.97 1016.78 1016.55 1016.28
1011.19 1011.25 1011.32 1011.40 1011.50 1011.62 1011.78 1011.96 1012.15 1012.34 1012.52 1012.68 1012.81 1012.90 1012.97 1013.02 1013.06 1013.11 1013.19 1013.31 1013.47 1013.68 1013.93 1014.23 1014.56 1014.91 1015.26 1015.61 1015.94 1016.25 1016.52 1016.76 1016.96 1017.11 1017.21 1017.26 1017.26 1017.19 1017.07 1016.91 1016.70 1016.45 1016.18
1011.18 1011.21 1011.25 1011.29 1011.36 1011.45 1011.57 1011.71 1011.87 1012.04 1012.20 1012.34 1012.46 1012.56 1012.64 1012.70 1012.77 1012.85 1012.96 1013.11 1013.31 1013.55 1013.84 1014.18 1014.54 1014.91 1015.29 1015.66 1016.02 1016.34 1016.62 1016.86 1017.05 1017.19 1017.27 1017.29 1017.26 1017.18 1017.04 1016.85 1016.63 1016.38 1016.11
1011.28 1011.26 1011.24 1011.22 1011.23 1011.27 1011.33 1011.43 1011.54 1011.67 1011.79 1011.92 1012.04 1012.14 1012.24 1012.33 1012.44 1012.57 1012.73 1012.94 1013.19 1013.49 1013.84 1014.22 1014.62 1015.03 1015.45 1015.84 1016.20 1016.53 1016.80 1017.03 1017.20 1017.31 1017.36 1017.36 1017.30 1017.18 1017.03 1016.83 1016.60 1016.35 1016.07
1011.52 1011.44 1011.35 1011.26 1011.19 1011.15 1011.15 1011.18 1011.23 1011.31 1011.41 1011.51 1011.62 1011.74 1011.86 1012.00 1012.16 1012.35 1012.58 1012.86 1013.18 1013.55 1013.96 1014.39 1014.84 1015.29 1015.73 1016.14 1016.50 1016.82 1017.08 1017.28 1017.41 1017.48 1017.50 1017.45 1017.36 1017.22 1017.04 1016.83 1016.59 1016.34 1016.07
1011.93 1011.77 1011.60 1011.44 1011.29 1011.17 1011.09 1011.05 1011.04 1011.08 1011.14 1011.22 1011.33 1011.46 1011.61 1011.80 1012.01 1012.27 1012.57 1012.92 1013.31 1013.75 1014.22 1014.70 1015.19 1015.67 1016.12 1016.53 1016.89 1017.18 1017.41 1017.57 1017.66 1017.69 1017.66 1017.57 1017.44 1017.28 1017.08 1016.86 1016.61 1016.36 1016.08
1012.45 1012.23 1011.99 1011.76 1011.54 1011.35 1011.20 1011.10 1011.05 1011.04 1011.07 1011.14 1011.24 1011.39 1011.57 1011.79 1012.06 1012.37 1012.74 1013.15 1013.60 1014.09 1014.60 1015.12 1015.63 1016.12 1016.57 1016.97 1017.30 1017.56 1017.74 1017.86 1017.90 1017.89 1017.81 1017.69 1017.53 1017.34 1017.13 1016.90 1016.65 1016.38 1016.10
1013.01 1012.75 1012.47 1012.19 1011.93 1011.69 1011.50 1011.36 1011.27 1011.23 1011.24 1011.30 1011.40 1011.56 1011.76 1012.02 1012.32 1012.67 1013.08 1013.53 1014.01 1014.53 1015.06 1015.59 1016.10 1016.58 1017.01 1017.38 1017.68 1017.90 1018.04 1018.11 1018.11 1018.05 1017.95 1017.80 1017.61 1017.41 1017.18 1016.94 1016.68 1016.41 1016.12
1013.54 1013.28 1012.99 1012.69 1012.42 1012.17 1011.96 1011.80 1011.70 1011.64 1011.64 1011.70 1011.81 1011.97 1012.18 1012.45 1012.76 1013.13 1013.55 1014.01 1014.51 1015.03 1015.55 1016.06 1016.55 1017.00 1017.39 1017.72 1017.97 1018.15 1018.26 1018.29 1018.26 1018.17 1018.04 1017.88 1017.68 1017.47 1017.23 1016.98 1016.72 1016.44 1016.14
Thickness
5801 5797 5793 5788 5785 5781 5776 5773 5770 5768 5766 5763 5760 5757 5755 5752 5751 5748 5747 5745 5743 5741 5739 5738 5736 5735 5733 5732 5730 5728 5726 5723 5719 5721 5723 5723 5723 5722 5721 5720 5719 5718 5716
5803 5798 5793 5789 5785 5780 5776 5774 5771 5767 5765 5762 5758 5755 5752 5750 5748 5746 5743 5742 5740 5738 5736 5735 5732 5732 5730 5729 5726 5724 5722 5721 5718 5716 5716 5716 5717 5717 5716 5714 5713 5712 5710
5803 5797 5792 5788 5784 5780 5777 5774 5771 5767 5763 5760 5757 5753 5750 5747 5745 5743 5741 5739 5737 5735 5733 5730 5729 5727 5725 5724 5723 5720 5719 5718 5716 5713 5712 5711 5711 5711 5709 5708 5707 5705 5704
5803 5797 5792 5788 5785 5780 5776 5773 5769 5766 5762 5758 5754 5751 5748 5745 5742 5739 5737 5735 5733 5731 5729 5727 5725 5723 5721 5720 5719 5716 5715 5712 5710 5708 5706 5706 5705 5705 5703 5700 5698 5697 5696
5801 5796 5792 5788 5784 5780 5774 5769 5766 5762 5759 5755 5751 5747 5744 5741 5738 5735 5733 5731 5728 5726 5724 5723 5721 5719 5718 5716 5715 5712 5710 5707 5704 5702 5700 5699 5698 5697 5695 5694 5690 5688 5688
5799 5794 5791 5786 5780 5775 5771 5766 5762 5759 5755 5751 5746 5742 5739 5737 5734 5731 5728 5725 5723 5721 5719 5717 5715 5713 5712 5711 5710 5708 5706 5702 5699 5696 5694 5692 5692 5691 5690 5687 5683 5680 5678
5796 5792 5787 5781 5774 5770 5767 5762 5759 5756 5752 5746 5742 5738 5734 5731 5729 5726 5723 5720 5717 5714 5712 5710 5709 5707 5706 5704 5703 5702 5700 5698 5696 5692 5689 5688 5687 5687 5684 5680 5677 5674 5673
5792 5787 5783 5778 5772 5765 5761 5758 5755 5752 5747 5742 5737 5734 5729 5725 5723 5721 5717 5714 5711 5708 5706 5704 5701 5700 5699 5697 5696 5693 5691 5690 5689 5687 5686 5685 5683 5681 5678 5675 5671 5668 5665
5788 5783 5779 5775 5768 5762 5757 5754 5750 5746 5742 5737 5733 5728 5723 5719 5717 5714 5711 5707 5704 5701 5700 5697 5695 5693 5692 5690 5687 5685 5683 5682 5682 5680 5679 5678 5676 5674 5671 5666 5662 5659 5656
5783 5779 5776 5771 5765 5758 5753 5749 5745 5741 5736 5732 5726 5721 5717 5713 5710 5707 5704 5701 5696 5694 5691 5689 5687 5685 5683 5682 5679 5677 5674 5673 5672 5671 5670 5668 5666 5664 5661 5658 5655 5651 5647
5777 5773 5768 5764 5759 5753 5748 5744 5739 5734 5729 5724 5719 5714 5710 5707 5704 5701 5698 5694 5690 5686 5683 5680 5677 5675 5674 5673 5671 5668 5667 5665 5663 5661 5659 5657 5656 5654 5652 5649 5647 5644 5640
5769 5764 5759 5755 5752 5746 5740 5735 5731 5726 5720 5715 5710 5705 5701 5698 5695 5692 5689 5685 5682 5679 5675 5672 5669 5667 5665 5664 5662 5660 5659 5657 5654 5652 5649 5647 5645 5644 5643 5641 5639 5637 5634
5756 5751 5747 5744 5740 5737 5731 5726 5721 5716 5711 5706 5701 5696 5691 5687 5684 5682 5680 5677 5674 5670 5667 5664 5661 5659 5657 5655 5653 5651 5649 5646 5644 5641 5640 5638 5637 5635 5633 5631 5629 5627 5625
5746 5740 5736 5732 5728 5723 5719 5714 5709 5705 5701 5697 5692 5688 5683 5679 5675 5672 5669 5667 5664 5661 5658 5655 5653 5650 5648 5646 5643 5641 5638 5636 5634 5632 5630 5629 5627 5625 5623 5621 5618 5616 5613
5735 5730 5726 5721 5716 5710 5705 5701 5698 5694 5692 5689 5684 5680 5674 5670 5667 5664 5660 5657 5654 5651 5648 5645 5642 5640 5638 5635 5633 5631 5628 5626 5624 5622 5620 5618 5616 5614 5612 5610 5608 5605 5602
5722 5719 5715 5710 5705 5698 5692 5686 5684 5682 5680 5678 5675 5671 5666 5662 5659 5655 5652 5649 5645 5642 5638 5634 5631 5629 5626 5624 5622 5620 5618 5615 5613 5612 5610 5608 5606 5604 5602 5599 5597 5594 5592
5711 5708 5705 5700 5695 5689 5684 5679 5673 5669 5667 5665 5662 5659 5656 5652 5648 5644 5641 5637 5634 5631 5626 5623 5619 5617 5614 5612 5610 5608 5606 5604 5602 5600 5599 5597 5596 5593 5591 5588 5586 5583 5580
5700 5698 5695 5692 5688 5682 5677 5672 5667 5662 5656 5651 5648 5646 5643 5640 5636 5633 5629 5626 5621 5618 5615 5612 5609 5606 5603 5601 5598 5596 5594 5592 5590 5588 5587 5586 5584 5582 5580 5577 5575 5572 5569
5688 5686 5684 5681 5678 5674 5669 5663 5658 5653 5647 5642 5637 5633 5630 5627 5623 5620 5617 5613 5610 5607 5604 5601 5598 5595 5592 5589 5587 5584 5582 5580 5577 5576 5574 5572 5571 5569 5567 5565 5563 5561 5558
5678 5676 5674 5670 5666 5662 5658 5653 5648 5642 5637 5632 5628 5623 5618 5614 5610 5607 5603 5601 5599 5595 5592 5589 5586 5583 5580 5577 5574 5572 5570 5567 5565 5562 5561 5559 5557 5556 5554 5552 5551 5549 5547
5666 5664 5662 5659 5655 5652 5647 5643 5638 5633 5627 5622 5617 5614 5609 5605 5601 5597 5593 5590 5587 5584 5581 5578 5574 5571 5568 5565 5562 5559 5556 5554 5552 5549 5547 5546 5544 5542 5540 5539 5538 5537 5535
5655 5652 5649 5646 5644 5641 5636 5632 5628 5622 5617 5612 5607 5603 5598 5594 5590 5587 5583 5580 5577 5574 5571 5567 5563 5559 5556 5553 5550 5547 5544 5541 5538 5536 5534 5532 5531 5529 5528 5527 5525 5524 5522
5642 5640 5637 5634 5631 5629 5625 5620 5616 5611 5606 5602 5598 5592 5587 5583 5580 5577 5573 5570 5567 5564 5560 5556 5552 5548 5544 5541 5538 5535 5532 5529 5526 5524 5522 5520 5518 5517 5515 5514 5513 5512 5511
5628 5627 5624 5621 5618 5615 5612 5608 5604 5600 5595 5592 5588 5583 5578 5574 5571 5567 5563 5560 5556 5553 5549 5545 5540 5536 5533 5529 5526 5523 5520 5518 5516 5513 5511 5508 5507 5505 5503 5502 5500 5500 5499
5615 5613 5610 5607 5605 5602 5598 5595 5591 5588 5584 5581 5577 5572 5568 5564 5560 5556 5553 5549 5544 5540 5536 5532 5528 5524 5521 5517 5514 5511 5509 5506 5504 5502 5500 5497 5495 5494 5492 5491 5489 5488 5487
5602 5600 5597 5595 5592 5589 5586 5583 5579 5576 5572 5569 5565 5561 5557 5552 5548 5545 5541 5537 5532 5528 5524 5519 5516 5512 5509 5506 5503 5500 5497 5495 5492 5490 5488 5486 5483 5482 5480 5478 5478 5477 5476